Location: G�ndlingen
(48.0142°N, 7.6396°E)
Time: 17:04:54
(UTC+00:00)

Cosmos 2278 Rocket - Pass Details

Date: 05 July 2020
Orbit: 841 x 845 km, 71.0° (Epoch: 12 August)

Event Time Altitude Azimuth Distance (km) Brightness Sun altitude
Rises 21:00:18 0° 335° (NNW) 3,417 7.3 -11.3°
Reaches altitude 10° 21:02:52 10° 341° (NNW) 2,477 6.0 -11.6°
Maximum altitude 21:08:20 46° 55° (NE) 1,122 2.9 -12.1°
Enters shadow 21:12:50 15° 124° (SE) 2,137 3.7 -12.5°
